SNJ50 ROIG-ROAH

Flight info

Callsign SNJ50
Flight time 0h 38m
Altitude 29000
Route MJC Y57 VELNO
Aircraft B738/M-SDE2E3FGHIRWXY/LB1

Departure

Time 2026-04-20 17:55
Airport New Ishigaki Airport (ROIG)

Arrival

Time 2026-04-20 18:33
Airport Naha International Airport (ROAH)
Time Latitude Longitude Altitude Speed Heading
2026-04-20 17:37 24.39176 124.24555 116 ft 0 kts 126°
2026-04-20 17:46 24.39182 124.24545 112 ft 2 kts 126°
2026-04-20 17:46 24.39192 124.24531 115 ft 2 kts 127°
2026-04-20 17:46 24.39202 124.24516 113 ft 2 kts 128°
2026-04-20 17:47 24.39212 124.24503 112 ft 2 kts 132°
2026-04-20 17:47 24.39224 124.24490 113 ft 2 kts 145°
2026-04-20 17:47 24.39239 124.24485 112 ft 2 kts 204°
2026-04-20 17:47 24.39245 124.24488 113 ft 0 kts 214°
2026-04-20 17:51 24.39242 124.24484 112 ft 2 kts 227°
2026-04-20 17:51 24.39247 124.24460 113 ft 5 kts 302°
2026-04-20 17:51 24.39237 124.24416 113 ft 8 kts 225°
2026-04-20 17:52 24.39189 124.24377 116 ft 9 kts 216°
2026-04-20 17:52 24.39141 124.24338 115 ft 9 kts 216°
2026-04-20 17:52 24.39093 124.24301 117 ft 8 kts 215°
2026-04-20 17:52 24.39047 124.24265 117 ft 8 kts 216°
2026-04-20 17:53 24.39001 124.24229 113 ft 9 kts 216°
2026-04-20 17:53 24.38949 124.24187 118 ft 10 kts 216°
2026-04-20 17:53 24.38897 124.24146 122 ft 9 kts 216°
2026-04-20 17:53 24.38849 124.24099 131 ft 9 kts 240°
2026-04-20 17:54 24.38860 124.24036 135 ft 9 kts 304°
2026-04-20 17:54 24.38896 124.23982 136 ft 9 kts 306°
2026-04-20 17:54 24.38946 124.23961 136 ft 9 kts 21°
2026-04-20 17:54 24.39015 124.24014 132 ft 20 kts 36°
2026-04-20 17:55 24.39344 124.24273 113 ft 97 kts 36°
2026-04-20 17:55 24.40069 124.24848 111 ft 157 kts 38°
2026-04-20 17:55 24.41022 124.25571 669 ft 168 kts 38°
2026-04-20 17:55 24.41825 124.26425 1631 ft 154 kts 67°
2026-04-20 17:56 24.42174 124.27542 2352 ft 161 kts 72°
2026-04-20 17:56 24.42585 124.28825 2660 ft 196 kts 71°
2026-04-20 17:56 24.42912 124.29819 2822 ft 214 kts 71°
2026-04-20 17:56 24.43654 124.32030 3183 ft 250 kts 70°
2026-04-20 17:57 24.44070 124.33248 3707 ft 255 kts 69°
2026-04-20 17:57 24.44703 124.35078 4481 ft 261 kts 68°
2026-04-20 17:57 24.45371 124.36991 5254 ft 271 kts 67°
2026-04-20 17:57 24.46067 124.38964 5911 ft 282 kts 67°
2026-04-20 17:58 24.46784 124.40988 6700 ft 286 kts 67°
2026-04-20 17:58 24.47511 124.43034 7512 ft 290 kts 67°
2026-04-20 17:58 24.48240 124.45082 8265 ft 294 kts 67°
2026-04-20 17:58 24.48989 124.47183 9071 ft 297 kts 68°
2026-04-20 17:59 24.49748 124.49311 9837 ft 302 kts 68°
2026-04-20 17:59 24.50524 124.51485 10431 ft 312 kts 68°
2026-04-20 17:59 24.51346 124.53790 10609 ft 337 kts 69°
2026-04-20 17:59 24.52226 124.56257 10886 ft 355 kts 69°
2026-04-20 18:00 24.53137 124.58811 11409 ft 362 kts 69°
2026-04-20 18:00 24.54061 124.61400 12022 ft 368 kts 69°
2026-04-20 18:00 24.55000 124.64036 12610 ft 374 kts 70°
2026-04-20 18:00 24.55948 124.66696 13341 ft 375 kts 70°
2026-04-20 18:01 24.56905 124.69382 13999 ft 379 kts 70°
2026-04-20 18:01 24.57870 124.72095 14589 ft 383 kts 70°
2026-04-20 18:01 24.58845 124.74838 15172 ft 388 kts 70°
2026-04-20 18:01 24.59832 124.77613 15783 ft 392 kts 70°
2026-04-20 18:02 24.60826 124.80412 16379 ft 396 kts 70°
2026-04-20 18:02 24.61832 124.83246 16959 ft 400 kts 70°
2026-04-20 18:02 24.62848 124.86113 17532 ft 405 kts 70°
2026-04-20 18:02 24.63875 124.89010 18112 ft 409 kts 70°
2026-04-20 18:03 24.64912 124.91938 18615 ft 413 kts 70°
2026-04-20 18:03 24.65960 124.94897 19097 ft 417 kts 70°
2026-04-20 18:03 24.67017 124.97887 19578 ft 421 kts 70°
2026-04-20 18:03 24.68082 125.00900 20058 ft 425 kts 70°
2026-04-20 18:04 24.69157 125.03944 20538 ft 429 kts 70°
2026-04-20 18:04 24.70241 125.07016 21026 ft 433 kts 70°
2026-04-20 18:04 24.71333 125.10115 21484 ft 437 kts 70°
2026-04-20 18:04 24.72402 125.13257 21926 ft 441 kts 71°
2026-04-20 18:05 24.74505 125.19645 22831 ft 448 kts 71°
2026-04-20 18:05 24.75571 125.22878 23274 ft 452 kts 71°
2026-04-20 18:05 24.76650 125.26138 23683 ft 456 kts 71°
2026-04-20 18:06 24.77766 125.29414 24035 ft 459 kts 68°
2026-04-20 18:06 24.79268 125.32537 24402 ft 463 kts 59°
2026-04-20 18:06 24.80972 125.35550 24772 ft 465 kts 57°
2026-04-20 18:06 24.82747 125.38546 25117 ft 469 kts 56°
2026-04-20 18:07 24.84540 125.41557 25457 ft 472 kts 56°
2026-04-20 18:07 24.86333 125.44601 25795 ft 475 kts 57°
2026-04-20 18:07 24.88095 125.47635 26139 ft 478 kts 57°
2026-04-20 18:07 24.89896 125.50778 26483 ft 481 kts 57°
2026-04-20 18:08 24.91655 125.53872 26804 ft 484 kts 57°
2026-04-20 18:08 24.93438 125.57026 27134 ft 487 kts 57°
2026-04-20 18:08 24.95231 125.60204 27455 ft 490 kts 57°
2026-04-20 18:08 24.97034 125.63402 27764 ft 493 kts 57°
2026-04-20 18:09 24.98847 125.66618 28077 ft 495 kts 57°
2026-04-20 18:09 25.00665 125.69845 28502 ft 495 kts 57°
2026-04-20 18:09 25.02481 125.73068 28893 ft 496 kts 57°
2026-04-20 18:09 25.04306 125.76309 29060 ft 500 kts 57°
2026-04-20 18:10 25.08011 125.82892 29054 ft 505 kts 57°
2026-04-20 18:10 25.11692 125.89443 29047 ft 502 kts 57°
2026-04-20 18:11 25.15372 125.96002 29054 ft 503 kts 57°
2026-04-20 18:11 25.19057 126.02578 29047 ft 504 kts 56°
2026-04-20 18:12 25.20901 126.05871 28619 ft 508 kts 57°
2026-04-20 18:12 25.22750 126.09178 28081 ft 502 kts 57°
2026-04-20 18:12 25.24576 126.12446 27470 ft 497 kts 57°
2026-04-20 18:12 25.26382 126.15680 26885 ft 492 kts 57°
2026-04-20 18:13 25.28167 126.18878 26313 ft 487 kts 57°
2026-04-20 18:13 25.29940 126.22057 25731 ft 483 kts 58°
2026-04-20 18:13 25.31669 126.25158 25157 ft 479 kts 58°
2026-04-20 18:13 25.33411 126.28285 24570 ft 475 kts 58°
2026-04-20 18:14 25.35135 126.31381 23998 ft 470 kts 58°
2026-04-20 18:14 25.36824 126.34416 23378 ft 457 kts 59°
2026-04-20 18:14 25.38465 126.37368 22767 ft 444 kts 59°
2026-04-20 18:14 25.40064 126.40247 22207 ft 437 kts 59°
2026-04-20 18:15 25.41650 126.43102 21677 ft 434 kts 59°
2026-04-20 18:15 25.43225 126.45941 21143 ft 431 kts 59°
2026-04-20 18:15 25.44786 126.48757 20618 ft 428 kts 59°
2026-04-20 18:15 25.46337 126.51555 20091 ft 425 kts 59°
2026-04-20 18:16 25.47879 126.54339 19568 ft 423 kts 59°
2026-04-20 18:16 25.49397 126.57091 19321 ft 414 kts 59°
2026-04-20 18:16 25.50888 126.59806 18825 ft 412 kts 59°
2026-04-20 18:16 25.52370 126.62509 18350 ft 409 kts 59°
2026-04-20 18:17 25.53843 126.65196 17764 ft 408 kts 59°
2026-04-20 18:17 25.55309 126.67874 17217 ft 405 kts 59°
2026-04-20 18:17 25.56763 126.70530 16691 ft 402 kts 59°
2026-04-20 18:17 25.58207 126.73167 16156 ft 399 kts 59°
2026-04-20 18:18 25.59641 126.75788 15642 ft 396 kts 59°
2026-04-20 18:18 25.61063 126.78389 15128 ft 393 kts 59°
2026-04-20 18:18 25.62473 126.80970 14603 ft 390 kts 59°
2026-04-20 18:18 25.63876 126.83538 14089 ft 388 kts 59°
2026-04-20 18:19 25.65245 126.86045 13529 ft 383 kts 59°
2026-04-20 18:19 25.66634 126.88592 13001 ft 380 kts 58°
2026-04-20 18:19 25.67997 126.91091 12481 ft 377 kts 58°
2026-04-20 18:19 25.69349 126.93571 12059 ft 372 kts 58°
2026-04-20 18:20 25.70678 126.96010 11648 ft 367 kts 58°
2026-04-20 18:20 25.71974 126.98391 11184 ft 365 kts 58°
2026-04-20 18:20 25.73277 127.00785 10848 ft 358 kts 58°
2026-04-20 18:20 25.74538 127.03105 10701 ft 345 kts 58°
2026-04-20 18:21 25.75743 127.05323 10533 ft 325 kts 58°
2026-04-20 18:21 25.76877 127.07414 10392 ft 307 kts 58°
2026-04-20 18:21 25.77949 127.09390 10273 ft 291 kts 58°
2026-04-20 18:21 25.78971 127.11271 10150 ft 280 kts 58°
2026-04-20 18:22 25.79973 127.13117 10054 ft 279 kts 58°
2026-04-20 18:22 25.80981 127.14974 9789 ft 285 kts 57°
2026-04-20 18:22 25.82007 127.16867 9469 ft 285 kts 57°
2026-04-20 18:22 25.83026 127.18749 9193 ft 284 kts 57°
2026-04-20 18:23 25.84040 127.20619 8900 ft 282 kts 57°
2026-04-20 18:23 25.85035 127.22457 8613 ft 281 kts 57°
2026-04-20 18:23 25.86040 127.24313 8307 ft 280 kts 57°
2026-04-20 18:23 25.87053 127.26187 8022 ft 279 kts 57°
2026-04-20 18:24 25.88029 127.27991 7728 ft 274 kts 57°
2026-04-20 18:24 25.89011 127.29808 7447 ft 273 kts 57°
2026-04-20 18:24 25.89875 127.31689 7156 ft 274 kts 68°
2026-04-20 18:24 25.90411 127.33714 6906 ft 273 kts 73°
2026-04-20 18:25 25.90860 127.35758 6640 ft 272 kts 73°
2026-04-20 18:25 25.91301 127.37800 6353 ft 272 kts 73°
2026-04-20 18:25 25.91751 127.39839 6044 ft 271 kts 73°
2026-04-20 18:25 25.92208 127.41864 5760 ft 270 kts 72°
2026-04-20 18:26 25.92670 127.43881 5466 ft 269 kts 72°
2026-04-20 18:26 25.93135 127.45888 5183 ft 267 kts 72°
2026-04-20 18:26 25.93599 127.47881 4906 ft 266 kts 71°
2026-04-20 18:26 25.94058 127.49849 4624 ft 261 kts 72°
2026-04-20 18:27 25.94513 127.51789 4404 ft 257 kts 71°
2026-04-20 18:27 25.94962 127.53706 4148 ft 255 kts 72°
2026-04-20 18:27 25.95407 127.55608 3882 ft 254 kts 72°
2026-04-20 18:27 25.95851 127.57503 3614 ft 253 kts 72°
2026-04-20 18:28 25.96612 127.59219 3325 ft 247 kts 45°
2026-04-20 18:28 25.97868 127.60388 3266 ft 233 kts 32°
2026-04-20 18:28 25.99177 127.61348 3148 ft 217 kts 31°
2026-04-20 18:28 26.00393 127.62224 3055 ft 201 kts 31°
2026-04-20 18:29 26.01559 127.63073 2987 ft 203 kts 31°
2026-04-20 18:29 26.02750 127.63946 2921 ft 201 kts 32°
2026-04-20 18:29 26.03884 127.64782 2711 ft 189 kts 30°
2026-04-20 18:29 26.05088 127.65183 2504 ft 177 kts
2026-04-20 18:30 26.06290 127.65229 2323 ft 168 kts
2026-04-20 18:30 26.07433 127.65299 2106 ft 161 kts 359°
2026-04-20 18:30 26.08546 127.65258 1907 ft 161 kts 358°
2026-04-20 18:30 26.09669 127.65194 1681 ft 161 kts 358°
2026-04-20 18:31 26.10756 127.65129 1491 ft 152 kts 358°
2026-04-20 18:31 26.11774 127.65068 1269 ft 142 kts 358°
2026-04-20 18:31 26.12745 127.64976 1124 ft 140 kts 354°
2026-04-20 18:31 26.13715 127.64845 996 ft 142 kts 357°
2026-04-20 18:32 26.14696 127.64834 748 ft 140 kts 356°
2026-04-20 18:32 26.15643 127.64774 608 ft 134 kts 358°
2026-04-20 18:32 26.16580 127.64727 453 ft 135 kts 355°
2026-04-20 18:32 26.17502 127.64675 292 ft 129 kts 358°
2026-04-20 18:33 26.18386 127.64636 45 ft 125 kts 357°
2026-04-20 18:33 26.19168 127.64601 28 ft 93 kts 358°
2026-04-20 18:33 26.19663 127.64585 27 ft 50 kts 359°
2026-04-20 18:33 26.19857 127.64574 25 ft 6 kts 357°
2026-04-20 18:34 26.19880 127.64573 27 ft 9 kts 357°
2026-04-20 18:34 26.19985 127.64566 26 ft 21 kts 357°
2026-04-20 18:34 26.20142 127.64570 27 ft 23 kts
2026-04-20 18:34 26.20291 127.64620 27 ft 22 kts 24°
2026-04-20 18:35 26.20427 127.64698 27 ft 22 kts 27°
2026-04-20 18:35 26.20547 127.64748 27 ft 17 kts
2026-04-20 18:35 26.20628 127.64805 27 ft 14 kts 72°
2026-04-20 18:35 26.20631 127.64879 27 ft 7 kts 105°
2026-04-20 18:36 26.20593 127.64906 27 ft 8 kts 160°
2026-04-20 18:36 26.20555 127.64932 27 ft 0 kts 144°